Miscellaneous Local Product
Issued by NWS North Platte, NE

Home | Current Version | Previous Version | Text Only | Print | Product List | Glossary On
Versions: 1 2 3 4 5 6 7 8 9 10 11 12 13 14 15 16 17 18 19 20 21 22 23 24 25 26 27 28 29 30 31 32 33 34 35 36 37 38 39 40 41 42 43 44 45 46 47 48 49 50
315
AXUS43 KLBF 290510
MISLBF


WESTERN AND NORTH CENTRAL NEBRASKA HOURLY WEATHER ROUNDUP
NATIONAL WEATHER SERVICE NORTH PLATTE NE
1200 AM CDT SUN MAY 29 2016

NOTE: "FAIR" INDICATES FEW OR NO CLOUDS BELOW 12,000 FEET WITH NO
SIGNIFICANT WEATHER AND/OR OBSTRUCTIONS TO VISIBILITY.

NOTE: STATIONS NOT REPORTING VARIABLES SUCH AS SKY/WEATHER OR
PRESSURE ARE PROVIDED BY RAWS AND APRS NETWORKS AND ARE NOT UNDER
NATIONAL WEATHER SERVICE QUALITY CONTROL.

...OBSERVATIONS IN AND NEAR THE EASTERN PANHANDLE OF NEBRASKA...

CITY           SKY/WX    TMP DP  RH WIND       PRES   REMARKS
PINE RIDGE     CLEAR     47  45  93 SW5       30.06R
CHADRON        CLEAR     47  45  93 CALM      30.07R
ALLIANCE       CLEAR     49  46  90 N6        30.07S
SIDNEY         PTCLDY    50  46  86 N6        30.10S
CRESCENT LAKE    N/A     52  48  87 NE6         N/A
BIG SPRINGS      N/A     59  52  77 SE6         N/A
$$

...OBSERVATIONS IN NORTHERN NEBRASKA AND FAR SOUTHERN SOUTH DAKOTA...

CITY           SKY/WX    TMP DP  RH WIND       PRES   REMARKS
WINNER         FAIR      61  55  81 S5        29.97F
VALENTINE      CLOUDY    58  53  84 SW8       29.99F
THEDFORD       MOCLDY    57  51  79 NW3       30.06R
AINSWORTH      CLOUDY    61  53  74 W5        30.02F
O`NEILL        CLEAR     57  55  94 S3        30.00S
ORD            CLOUDY    57  55  93 CALM      30.01R
BROKEN BOW     CLOUDY    62  51  67 SW7       30.05R
BUTTE            N/A     58  55  89 S3          N/A
CHAMBERS         N/A     57  55  94 CALM        N/A
EWING            N/A     54  53  96 CALM        N/A
$$

...OBSERVATIONS IN SOUTHWEST NEBRASKA AND FAR NORTHEAST COLORADO...

CITY           SKY/WX    TMP DP  RH WIND       PRES   REMARKS
WRAY           FAIR      59  46  63 W6        30.08S
HOLYOKE        FAIR      59  48  67 NE12      30.08R
IMPERIAL       TSTM      59  51  75 MISG      30.11R
OGALLALA       PTCLDY    54  50  86 CALM      30.06S
NORTH PLATTE   CLOUDY    58  52  80 S7        30.03F
MCCOOK         CLOUDY    62  52  69 N21G28    30.07R
LEXINGTON      MOCLDY    59  51  75 W9G18     30.07R
PAXTON           N/A     58  51  79 E3          N/A
STAPLETON        N/A     58  51  78 CALM        N/A
GOTHENBURG       N/A     63  47  57 NW6         N/A
CALLAWAY         N/A     59  53  79 NW12        N/A
$$

...OBSERVATIONS IN CENTRAL LINCOLN COUNTY AREA...

CITY           SKY/WX    TMP DP  RH WIND       PRES   REMARKS
N.P. AIRPORT   CLOUDY    58  52  80 S7        30.03F
N.P. DOWNTOWN    N/A     57  54  91 CALM        N/A
N.P. SOUTHEAST   N/A     55  53  95 CALM        N/A
N.P. HILLCREST   N/A     63  49  59 E3          N/A
$$

...SOME OBSERVATIONS FROM AROUND THE REGION...

CITY           SKY/WX    TMP DP  RH WIND       PRES   REMARKS
DENVER         PTCLDY    51  44  77 S13       30.14R
LARAMIE        CLOUDY    52  33  48 NW18      30.20R
CHEYENNE       PTCLDY    53  40  61 SW15      30.15R
SCOTTSBLUFF    CLEAR     54  46  74 E6        30.08R
RAPID CITY     CLOUDY    52  46  80 NW10      30.03R
BISMARCK       CLEAR     56  55  97 W5        29.95R
PIERRE         CLEAR     56  53  90 W5        29.94S
SIOUX FALLS    CLOUDY    59  57  93 W5        29.94R
OMAHA          CLEAR     63  55  75 NW8       29.97R
GRAND ISLAND   CLEAR     60  55  83 CALM      30.02R
KANSAS CITY    CLEAR     63  58  83 SW6       30.01R
WICHITA        CLEAR     70  58  65 CALM      30.03R
OKLAHOMA CITY  CLEAR     71  67  87 SE7       30.02F
DALLAS         CLOUDY    80  72  76 SE9       29.99S
AMARILLO       CLEAR     62  49  62 SE12      30.08R
DODGE CITY     PTCLDY    60  54  80 E8        30.05S
HAYS           CLEAR     30 N/A N/A S3        30.03S
GOODLAND       CLEAR     57  48  72 W7        30.09R
$$




USA.gov is the U.S. government's official web portal to all federal, state and local government web resources and services.